M5DJC Weather Reports


time (UTC)temp
F
wind
direction
speed
knots
gust
knots
rain 1hr
in
rain 24hr
in
rain mn
in
humidity
%
barometer
mb
20260510210030 41 0 0.0 0.0 0.00 0.00 0.00 77 1015.5
20260510204544 42 0 0.0 0.0 0.00 0.00 0.00 75 1015.7
20260510203033 43 0 0.0 0.0 0.00 0.00 0.00 73 1015.8
20260510201532 44 127 0.0 2.6 0.00 0.00 0.00 72 1015.9
20260510200034 45 129 0.9 2.6 0.00 0.00 0.00 68 1016.1
20260510194531 46 125 1.7 3.5 0.00 0.00 0.00 67 1016.2
20260510193032 47 142 1.7 4.3 0.00 0.00 0.00 64 1016.3
20260510191532 48 139 1.7 4.3 0.00 0.00 0.00 61 1016.4
20260510190031 49 129 0.9 3.5 0.00 0.00 0.00 59 1016.6
20260510184534 50 148 0.9 3.5 0.00 0.00 0.00 56 1016.8
20260510183032 51 141 1.7 5.2 0.00 0.00 0.00 55 1016.9
20260510181536 51 94 1.7 3.5 0.00 0.00 0.00 55 1016.9
20260510180031 52 88 0.0 6.1 0.00 0.00 0.00 51 1017.0
20260510174535 54 46 0.9 6.1 0.00 0.00 0.00 49 1017.1
20260510173031 53 54 1.7 7.8 0.00 0.00 0.00 51 1017.1
20260510171531 53 14 0.9 6.1 0.00 0.00 0.00 51 1017.4
20260510170031 54 49 1.7 9.6 0.00 0.00 0.00 50 1017.5
20260510164543 54 302 0.9 9.6 0.00 0.00 0.00 50 1017.7
20260510163030 54 113 0.9 7.0 0.00 0.00 0.00 52 1017.9
20260510161534 54 124 1.7 6.1 0.00 0.00 0.00 52 1018.1
20260510160032 55 158 3.5 7.8 0.00 0.00 0.00 51 1018.2
20260510154544 55 154 2.6 11.3 0.00 0.00 0.00 51 1018.3
20260510153032 56 139 2.6 7.0 0.00 0.00 0.00 50 1018.3
20260510151530 57 180 2.6 8.7 0.00 0.00 0.00 48 1018.4
20260510150040 57 243 0.0 7.8 0.00 0.00 0.00 50 1018.4
20260510144540 57 299 1.7 6.1 0.00 0.00 0.00 49 1018.6
20260510143043 57 62 1.7 8.7 0.00 0.00 0.00 47 1018.7
20260510141534 57 229 2.6 7.8 0.00 0.00 0.00 48 1018.9
20260510140034 57 41 1.7 7.0 0.00 0.00 0.00 49 1019.1
20260510134530 57 3 2.6 6.1 0.00 0.00 0.00 48 1019.2
20260510133034 57 160 2.6 9.6 0.00 0.00 0.00 48 1019.2
20260510131544 56 25 1.7 7.8 0.00 0.00 0.00 51 1019.3
20260510130033 57 280 2.6 7.8 0.00 0.00 0.00 53 1019.4
20260510124530 56 147 1.7 11.3 0.00 0.00 0.00 54 1019.6
20260510123032 57 89 1.7 7.0 0.00 0.00 0.00 53 1019.6
20260510121538 55 22 1.7 7.8 0.00 0.00 0.00 52 1019.7
20260510120035 55 233 1.7 9.6 0.00 0.00 0.00 53 1019.8
20260510114536 57 137 2.6 7.8 0.00 0.00 0.00 53 1020.2
20260510113031 56 172 4.3 12.2 0.00 0.00 0.00 55 1020.3
20260510111531 54 137 1.7 7.8 0.00 0.00 0.00 58 1020.5
20260510110034 54 209 2.6 8.7 0.00 0.00 0.00 59 1020.6
20260510104532 55 64 3.5 12.2 0.00 0.00 0.00 56 1020.7
20260510103036 54 177 1.7 7.0 0.00 0.00 0.00 60 1020.9
20260510101532 54 310 2.6 9.6 0.00 0.00 0.00 60 1021.0
20260510100034 54 165 4.3 8.7 0.00 0.00 0.00 60 1021.0
20260510094535 51 156 4.3 10.4 0.00 0.00 0.00 65 1021.1
20260510093032 51 128 2.6 7.0 0.00 0.00 0.00 67 1021.3
20260510091533 51 177 0.9 7.8 0.00 0.00 0.00 70 1021.5
20260510090033 50 58 1.7 7.0 0.00 0.00 0.00 71 1021.5
20260510084535 50 148 2.6 8.7 0.00 0.00 0.00 73 1021.4
20260510083030 50 212 1.7 9.6 0.00 0.00 0.00 75 1021.3
20260510081532 50 15 0.9 7.0 0.00 0.00 0.00 73 1021.3
20260510080034 50 0 0.9 7.0 0.00 0.00 0.00 75 1021.2
20260510074536 49 148 1.7 8.7 0.00 0.00 0.00 76 1021.4
20260510073037 49 0 0.9 7.8 0.00 0.00 0.00 76 1021.3
20260510071531 48 55 1.7 7.0 0.00 0.00 0.00 77 1021.3
20260510070032 48 142 1.7 8.7 0.00 0.00 0.00 77 1021.1
20260510064545 47 192 1.7 5.2 0.00 0.00 0.00 78 1021.3
20260510063032 47 150 0.9 7.0 0.00 0.00 0.00 79 1021.1
20260510061533 47 293 2.6 8.7 0.00 0.00 0.00 80 1021.1
20260510060036 46 221 0.9 7.0 0.00 0.00 0.00 82 1021.0
20260510054532 46 269 1.7 8.7 0.00 0.00 0.00 83 1021.0
20260510053042 46 261 0.9 7.0 0.00 0.00 0.00 83 1021.1
20260510051545 46 285 0.9 4.3 0.00 0.00 0.00 83 1021.1
20260510050032 46 299 0.9 6.1 0.00 0.00 0.00 83 1021.2
20260510044535 46 168 0.9 5.2 0.00 0.00 0.00 83 1021.1
20260510043032 46 315 0.9 6.1 0.00 0.00 0.00 83 1020.9
20260510041534 46 57 0.9 7.0 0.00 0.00 0.00 84 1020.9
20260510040036 47 154 0.9 5.2 0.00 0.00 0.00 85 1021.1
20260510034532 47 212 0.9 8.7 0.00 0.00 0.00 85 1021.4
20260510033032 47 0 1.7 7.0 0.00 0.00 0.00 85 1021.5
20260510031533 47 164 1.7 6.1 0.00 0.00 0.00 85 1021.6
20260510030031 47 345 0.9 6.1 0.00 0.00 0.00 85 1021.6
20260510024532 48 176 0.9 6.1 0.00 0.00 0.00 85 1021.5
20260510023032 48 0 0.9 5.2 0.00 0.00 0.00 86 1021.7
20260510021534 48 25 0.9 5.2 0.00 0.00 0.00 86 1021.7
20260510020032 48 131 1.7 6.1 0.00 0.00 0.00 85 1021.6
20260510014535 48 272 0.9 4.3 0.00 0.00 0.00 86 1021.3
20260510013035 48 0 0.9 5.2 0.00 0.00 0.00 86 1021.1
20260510011531 48 258 0.9 7.8 0.00 0.00 0.00 86 1021.1
20260510010030 49 14 0.9 4.3 0.00 0.00 0.00 86 1021.3
20260510004532 49 56 0.9 7.0 0.00 0.00 0.00 86 1021.4
20260510003037 49 324 1.7 7.0 0.00 0.00 0.00 86 1021.6
20260510001534 49 183 1.7 7.0 0.00 0.00 0.00 87 1021.6
20260510000034 49 0 0.9 3.5 0.00 0.00 0.00 86 1021.8
20260509234533 49 316 1.7 6.1 0.00 0.00 0.00 86 1021.7
20260509233032 49 189 0.9 7.8 0.00 0.00 0.00 86 1021.6
20260509231535 49 304 0.9 7.8 0.00 0.00 0.00 87 1021.5
20260509230034 49 293 0.9 4.3 0.00 0.00 0.00 88 1021.5
20260509224534 49 285 0.0 5.2 0.00 0.00 0.00 88 1021.5
20260509223032 48 201 0.9 7.8 0.00 0.00 0.00 88 1021.5
20260509221534 48 16 0.9 6.1 0.00 0.00 0.00 87 1021.5
20260509220040 49 216 0.9 5.2 0.00 0.00 0.00 86 1021.5
20260509214533 49 285 0.0 3.5 0.00 0.00 0.00 87 1021.4
20260509213035 49 358 0.0 3.5 0.00 0.00 0.00 87 1021.3
20260509211534 49 321 0.9 4.3 0.00 0.00 0.00 86 1021.4